[[{"header":{"parameterUnit":"m.s-1","parameterCategory":1,"la1":30.2991,"la2":30.254,"lo1":-89.0895,"lo2":-89.0444,"dy":0.0017,"dx":0.0017,"nx":28,"ny":28,"refTime":"2025-06-01T21:00:00:Z","depth":0,"parameterNumber":2,"parameterNumberName":"U-component_of_WINDS"},"data":[0,0,0,0,0,0,0,0,0,0,0,0,0,0,0,0,0,0,0,0,0,0,0,0,0,0,0,0,0,0,0,0,0,0,0,0,0,0,0,0,0,0,0,0,0,0,0,0,0,0,0,0,0,0,0,0,0,0,-1.8376,-1.8376,0,-1.8322,-1.8321,-1.8321,-1.8259,-1.8258,-1.8257,-1.8256,-1.8199,-1.8198,-1.8198,0,0,0,0,0,0,0,0,0,0,0,0,0,-1.8426,-1.8425,-1.8376,-1.8376,-1.8375,-1.8322,-1.8321,-1.8321,-1.8259,-1.8258,-1.8257,-1.8256,-1.8199,-1.8198,-1.8198,0,0,0,0,0,0,0,0,0,0,0,0,0,-1.8391,-1.8425,-1.8376,-1.8338,-1.8334,-1.8322,-1.8321,-1.832,-1.8259,-1.8258,-1.8256,-1.8255,-1.82,-1.8199,-1.8198,-1.8219,0,0,-1.8195,-1.8194,0,0,0,0,0,0,0,0,-1.8393,-1.8389,-1.8344,-1.834,-1.8336,-1.8296,-1.8318,-1.8286,-1.826,-1.8287,-1.8256,-1.8254,-1.8232,-1.8228,-1.8221,-1.8216,-1.8214,-1.8194,-1.8194,-1.8193,-1.8193,0,0,0,0,0,0,0,-1.8396,-1.8391,-1.8355,-1.8344,-1.8339,-1.8323,-1.8317,-1.8312,-1.8268,-1.8285,-1.828,-1.8275,-1.823,-1.8222,-1.822,-1.8213,-1.8195,-1.8194,-1.8193,-1.8193,-1.8225,-1.8226,0,0,0,0,0,0,-1.8404,-1.8394,-1.8356,-1.8353,-1.8362,-1.8323,-1.8316,-1.831,-1.8268,-1.826,-1.8276,-1.8272,-1.8225,-1.8221,-1.8217,-1.824,-1.8193,-1.8193,-1.8192,-1.8223,-1.8225,-1.8226,0,0,0,0,0,0,-1.8405,-1.8401,-1.8359,-1.8372,-1.8366,-1.8324,-1.8318,-1.831,-1.8302,-1.8261,-1.8253,-1.8277,-1.8224,-1.8219,-1.8219,-1.8237,-1.8192,-1.8191,-1.8221,-1.8224,-1.8226,-1.8286,0,0,0,0,0,0,-1.8407,-1.8402,-1.841,-1.8373,-1.8365,-1.8362,-1.8319,-1.831,-1.8301,-1.8295,-1.826,-1.8252,-1.8222,-1.8221,-1.8219,-1.8235,-1.819,-1.822,-1.8222,-1.8225,-1.8282,-1.829,-1.8296,0,0,0,0,0,-1.8409,-1.8428,-1.8411,-1.8406,-1.8374,-1.8363,-1.8359,-1.8324,-1.8303,-1.831,-1.8284,-1.8254,-1.8236,-1.8222,-1.8218,-1.8235,-1.8218,-1.8222,-1.8225,-1.8279,-1.8288,-1.8296,0,0,0,0,0,0,-1.8467,-1.8423,-1.8402,-1.841,-1.8391,-1.8353,-1.8361,-1.8335,-1.832,-1.8315,-1.8272,-1.8265,-1.8271,-1.8253,-1.8238,-1.8254,-1.8223,-1.8226,-1.8265,-1.8274,-1.8281,-1.8285,-1.819,0,0,0,0,0,-1.8482,-1.8477,-1.8438,-1.8449,-1.844,-1.8403,-1.8396,-1.8371,-1.8349,-1.8341,-1.8315,-1.8294,-1.8284,-1.8278,-1.8266,-1.828,-1.8271,-1.8289,-1.8297,-1.8303,-1.8305,-1.8312,-1.8319,-1.8237,-1.8237,-1.8237,0,0,-1.851,-1.8485,-1.8484,-1.846,-1.8442,-1.8438,-1.8396,-1.8393,-1.8389,-1.834,-1.8339,-1.832,-1.8294,-1.8302,-1.8304,-1.8287,-1.8327,-1.8307,-1.8312,-1.8311,-1.8316,-1.8324,-1.8331,-1.8239,-1.8239,-1.8238,0,0,-1.8559,-1.854,-1.8547,-1.8531,-1.8505,-1.848,-1.8482,-1.8448,-1.8433,-1.8432,-1.8395,-1.8391,-1.8374,-1.8358,-1.8347,-1.8393,-1.8365,-1.8391,-1.8428,-1.8434,-1.8441,-1.8446,-1.8463,-1.8469,-1.8394,-1.8394,-1.8394,0,-1.8598,-1.859,-1.8554,-1.8554,-1.8545,-1.8501,-1.8508,-1.8494,-1.8465,-1.846,-1.8442,-1.8421,-1.84,-1.8404,-1.8415,-1.8408,-1.8409,-1.8394,-1.8443,-1.8448,-1.8453,-1.8468,-1.8474,-1.8397,-1.8397,-1.8396,-1.8396,0,-1.8639,-1.8635,-1.8644,-1.8618,-1.861,-1.8613,-1.8578,-1.8574,-1.855,-1.8528,-1.8528,-1.8502,-1.8485,-1.8484,-1.8461,-1.8485,-1.8475,-1.8451,-1.8419,-1.8465,-1.8478,-1.8484,-1.8402,-1.8401,-1.84,-1.8399,0,0,-1.8722,-1.8678,-1.8682,-1.867,-1.8639,-1.8635,-1.8637,-1.8621,-1.8619,-1.8601,-1.8602,-1.859,-1.8568,-1.8556,-1.853,-1.8537,-1.8575,-1.8511,-1.851,-1.8524,-1.86,-1.8619,-1.8626,-1.8557,-1.8558,-1.8559,-1.8603,0,-1.8765,-1.8766,-1.8735,-1.8745,-1.874,-1.87,-1.8702,-1.8684,-1.8663,-1.8656,-1.8633,-1.8626,-1.8597,-1.859,-1.8594,-1.857,-1.859,-1.8566,-1.8557,-1.8557,-1.8564,-1.8633,-1.8651,-1.8694,-1.8608,-1.8608,-1.8609,0,-1.8815,-1.8802,-1.8812,-1.8782,-1.8779,-1.8781,-1.8765,-1.8759,-1.8738,-1.8722,-1.8711,-1.8682,-1.8682,-1.8653,-1.8653,-1.8637,-1.8632,-1.862,-1.8621,-1.8617,-1.8585,-1.8631,-1.8707,-1.8713,-1.8617,-1.8616,-1.8616,0,-1.8875,-1.8859,-1.8863,-1.8854,-1.8819,-1.8822,-1.8808,-1.8785,-1.8778,-1.8764,-1.8759,-1.8745,-1.8737,-1.8727,-1.8696,-1.8678,-1.87,-1.8668,-1.8687,-1.8688,-1.8692,-1.8692,-1.8767,-1.869,-1.869,-1.869,-1.869,0,-1.8926,-1.8933,-1.8889,-1.8891,-1.8899,-1.8863,-1.8872,-1.8853,-1.8834,-1.8832,-1.8797,-1.8796,-1.8755,-1.875,-1.8726,-1.8729,-1.8726,-1.8714,-1.8707,-1.8716,-1.8718,-1.8711,-1.8707,-1.8692,-1.8691,-1.8691,-1.8691,0,-1.8992,-1.8963,-1.8965,-1.8933,-1.8925,-1.8932,-1.8904,-1.8905,-1.8883,-1.8881,-1.8879,-1.8844,-1.8837,-1.8805,-1.8789,-1.8773,-1.8785,-1.8772,-1.8792,-1.8787,-1.8809,-1.8807,-1.8881,-1.8889,-1.8808,-1.8809,-1.881,0,-1.9027,-1.9032,-1.9,-1.8997,-1.8985,-1.8979,-1.8973,-1.8938,-1.8933,-1.891,-1.8914,-1.8903,-1.8893,-1.8882,-1.8856,-1.8844,-1.883,-1.8857,-1.8828,-1.8838,-1.883,-1.883,-1.8831,-1.8863,-1.8864,-1.8865,-1.8866,0,-1.909,-1.9076,-1.9068,-1.9055,-1.9048,-1.9036,-1.9022,-1.9022,-1.8983,-1.8979,-1.8971,-1.8963,-1.8948,-1.8938,-1.8922,-1.8907,-1.8881,-1.8876,-1.8879,-1.8889,-1.89,-1.8894,-1.8808,-1.8874,-1.8873,-1.8872,-1.8872,-1.8872,-1.9141,-1.9144,-1.9123,-1.9115,-1.9102,-1.909,-1.909,-1.9069,-1.9061,-1.9047,-1.9027,-1.9022,-1.9002,-1.8978,-1.8965,-1.8961,-1.8946,-1.8951,-1.8952,-1.8954,-1.8959,-1.8902,-1.8958,-1.8957,-1.8957,-1.8957,-1.8957,0,-1.9203,-1.9188,-1.9181,-1.9164,-1.9158,-1.9135,-1.9118,-1.9115,-1.9111,-1.9095,-1.9086,-1.9077,-1.9068,-1.9042,-1.903,-1.9032,-1.9019,-1.903,-1.9029,-1.9026,-1.8973,-1.8971,-1.904,-1.904,-1.904,-1.904,-1.904,-1.904,-1.9234,-1.9238,-1.9222,-1.9219,-1.9204,-1.9199,-1.9192,-1.9181,-1.9168,-1.916,-1.9153,-1.9136,-1.9116,-1.9103,-1.9094,-1.9086,-1.9083,-1.9098,-1.9087,-1.9037,-1.9029,-1.9022,-1.9019,-1.9098,-1.9098,-1.914,-1.914,-1.914]},{"header":{"parameterUnit":"m.s-1","parameterCategory":1,"la1":30.2991,"la2":30.254,"lo1":-89.0895,"lo2":-89.0444,"dy":0.0017,"dx":0.0017,"nx":28,"ny":28,"refTime":"2025-06-01T21:00:00:Z","depth":0,"parameterNumber":3,"parameterNumberName":"V-component_of_WINDS"},"data":[0,0,0,0,0,0,0,0,0,0,0,0,0,0,0,0,0,0,0,0,0,0,0,0,0,0,0,0,0,0,0,0,0,0,0,0,0,0,0,0,0,0,0,0,0,0,0,0,0,0,0,0,0,0,0,0,0,0,2.844,2.844,0,2.8451,2.8451,2.8452,2.8507,2.8508,2.851,2.8511,2.8519,2.8518,2.8517,0,0,0,0,0,0,0,0,0,0,0,0,0,2.8462,2.8462,2.844,2.844,2.844,2.8451,2.8451,2.8452,2.8507,2.8509,2.851,2.8512,2.8519,2.8518,2.8517,0,0,0,0,0,0,0,0,0,0,0,0,0,2.8461,2.8461,2.844,2.8469,2.8472,2.8451,2.8451,2.8452,2.8507,2.8509,2.8511,2.8512,2.8519,2.8518,2.8516,2.8467,0,0,2.8512,2.8511,0,0,0,0,0,0,0,0,2.8461,2.846,2.8465,2.8467,2.847,2.848,2.8462,2.8457,2.8506,2.8493,2.8511,2.8513,2.8504,2.8504,2.8501,2.8468,2.8468,2.8512,2.8511,2.851,2.851,0,0,0,0,0,0,0,2.8461,2.846,2.8444,2.8465,2.8468,2.8481,2.8483,2.8461,2.8487,2.8494,2.8499,2.8499,2.8506,2.8503,2.8502,2.8468,2.8512,2.851,2.8509,2.8509,2.8395,2.8393,0,0,0,0,0,0,2.8457,2.8459,2.8444,2.8445,2.847,2.8479,2.8481,2.8475,2.8488,2.8492,2.8498,2.8502,2.8504,2.8504,2.8503,2.8446,2.851,2.8509,2.8508,2.8397,2.8394,2.8392,0,0,0,0,0,0,2.8458,2.8455,2.8443,2.8453,2.8453,2.8476,2.8469,2.8474,2.8471,2.849,2.8495,2.849,2.8506,2.8505,2.8476,2.8447,2.8508,2.8506,2.8399,2.8396,2.8393,2.8331,0,0,0,0,0,0,2.8458,2.8455,2.8437,2.8452,2.8452,2.8417,2.8467,2.8473,2.8469,2.8474,2.8484,2.8488,2.8507,2.8478,2.8474,2.8446,2.8505,2.8402,2.8398,2.8394,2.8336,2.8326,2.8318,0,0,0,0,0,2.8459,2.8419,2.8436,2.8434,2.843,2.8415,2.8415,2.844,2.8466,2.8448,2.846,2.8487,2.8451,2.8475,2.8471,2.8441,2.8404,2.8399,2.8394,2.834,2.8328,2.8318,0,0,0,0,0,0,2.8398,2.8421,2.8441,2.8405,2.8408,2.8425,2.8403,2.8427,2.8421,2.8427,2.8457,2.8458,2.8425,2.8431,2.8456,2.8395,2.8432,2.8426,2.8392,2.8381,2.8372,2.8371,2.8504,0,0,0,0,0,2.838,2.8368,2.8388,2.8354,2.8355,2.8378,2.8373,2.8392,2.8396,2.8397,2.8407,2.8409,2.8398,2.839,2.8381,2.8338,2.834,2.8316,2.8307,2.8299,2.8294,2.8271,2.826,2.8376,2.8376,2.8376,0,0,2.8343,2.8355,2.8345,2.8342,2.8347,2.8332,2.8379,2.8361,2.835,2.8394,2.8368,2.8375,2.8379,2.8343,2.8328,2.8347,2.8262,2.8293,2.8287,2.8285,2.8265,2.8254,2.8244,2.8373,2.8374,2.8374,0,0,2.8269,2.8277,2.8249,2.8254,2.8261,2.8277,2.827,2.8284,2.8291,2.8266,2.8299,2.8286,2.8266,2.8268,2.8266,2.8193,2.8218,2.8189,2.8142,2.812,2.8111,2.8103,2.8076,2.8066,2.8184,2.8184,2.8184,0,2.8222,2.8202,2.8232,2.8212,2.821,2.8251,2.8223,2.8225,2.8228,2.8225,2.8247,2.8224,2.823,2.8194,2.8177,2.8174,2.8167,2.8188,2.811,2.8102,2.8095,2.807,2.806,2.818,2.8181,2.8181,2.8181,0,2.8143,2.8129,2.8106,2.811,2.8105,2.8081,2.8106,2.8098,2.8118,2.8131,2.8105,2.8113,2.8107,2.81,2.8118,2.8067,2.8079,2.8105,2.8143,2.808,2.8057,2.8048,2.8175,2.8176,2.8178,2.8178,0,0,2.8029,2.8051,2.8042,2.8044,2.8056,2.8045,2.8023,2.8018,2.801,2.8011,2.7993,2.7976,2.8001,2.7998,2.8018,2.7998,2.794,2.8027,2.8027,2.8009,2.7883,2.7863,2.7851,2.7957,2.7955,2.7954,2.7883,0,2.7957,2.7922,2.7948,2.7908,2.7895,2.7934,2.7915,2.792,2.7932,2.7922,2.7935,2.7923,2.7956,2.7955,2.7938,2.795,2.7914,2.7956,2.7939,2.7938,2.7935,2.7839,2.7818,2.775,2.7874,2.7872,2.7871,0,2.7868,2.7867,2.7825,2.7841,2.7836,2.7819,2.7817,2.7807,2.7813,2.7823,2.7822,2.7846,2.7825,2.7863,2.7834,2.7861,2.7856,2.7861,2.7859,2.7858,2.79,2.7834,2.7729,2.7718,2.7858,2.7859,2.786,0,2.7788,2.7776,2.775,2.7751,2.7768,2.7755,2.7761,2.7769,2.7765,2.7763,2.776,2.7755,2.7752,2.7747,2.777,2.7796,2.7737,2.7777,2.7744,2.7743,2.7728,2.7729,2.762,2.7727,2.7727,2.7727,2.7727,0,2.7704,2.7677,2.7714,2.7698,2.7668,2.7699,2.7669,2.7679,2.7687,2.7672,2.7706,2.7692,2.7723,2.7712,2.7729,2.7702,2.77,2.7707,2.7712,2.7703,2.7702,2.7699,2.7704,2.7724,2.7725,2.7725,2.7726,0,2.7608,2.7633,2.7607,2.7626,2.763,2.7607,2.7623,2.7609,2.7624,2.7606,2.7603,2.7627,2.7615,2.7638,2.7628,2.764,2.7602,2.7614,2.76,2.7603,2.7568,2.7571,2.7453,2.7439,2.7555,2.7554,2.7553,0,2.7553,2.7533,2.7551,2.7545,2.755,2.7539,2.7535,2.7565,2.7559,2.7565,2.755,2.7541,2.7536,2.7516,2.7531,2.7525,2.7537,2.7496,2.7536,2.7528,2.7535,2.7536,2.7534,2.7487,2.7486,2.7485,2.7484,0,2.7451,2.7465,2.7459,2.7457,2.7452,2.7452,2.7454,2.7446,2.7478,2.747,2.746,2.7456,2.7448,2.7439,2.7436,2.7442,2.7467,2.7471,2.7463,2.7454,2.7446,2.7449,2.7576,2.7473,2.7475,2.7475,2.7476,2.7476,2.7374,2.7358,2.7369,2.7361,2.7366,2.7368,2.7355,2.737,2.7362,2.7358,2.7376,2.7362,2.7369,2.7368,2.7371,2.736,2.7378,2.7366,2.7363,2.7359,2.7353,2.7449,2.7359,2.736,2.736,2.736,2.736,0,2.7274,2.7283,2.7276,2.7278,2.7272,2.7299,2.7303,2.7296,2.7283,2.7288,2.7283,2.7271,2.7263,2.7278,2.7272,2.726,2.7272,2.7257,2.7258,2.7259,2.7338,2.7345,2.7248,2.7248,2.7248,2.7248,2.7248,2.7248,2.7221,2.7196,2.7211,2.7189,2.7198,2.7185,2.7185,2.7186,2.719,2.7176,2.717,2.7181,2.719,2.7185,2.7179,2.7184,2.718,2.7161,2.7169,2.7242,2.7253,2.7264,2.7271,2.716,2.716,2.7092,2.7091,2.7091]}]]